Weather in As

Czech Republic     50°13′15″N   12°11′21″E
temp.,
°C
wind,
m/s
gust,
m/s
humid.,
%
clouds,
%
prec.,
mm/h
press.,
hPa
HPBL,
m
18 april, sun
sun1823:00+1nne1299100 0.0 1022203
02:00+1nw0199100 0.1 1021173
05:00+1se0199100 0.1 1021197
08:00+2sw009996 0.1 102183
11:00+4nnw129297 0.0 1020438
14:00+7n237699 0.1 1019876
17:00+7n3382100 0.4 1019731
20:00+4nnw119682 0.6 101916
19 april, mon
mon1923:00+4wsw0196100 0.4 102014
02:00+4e0196100 0.5 102015
05:00+4ene1197100 0.0 101913
08:00+5ne019197 0.0 1019150
11:00+9ne126896 0.3 10191099
14:00+10ne2362100 0.7 10181251
17:00+10ne336198 0.6 10171140
20:00+6nne2482100 0.8 101871
20 april, tue
tue2023:00+4nne119276 0.0 101813
02:00+4nw119099 0.0 101713
05:00+5nw1292100 0.3 101753
08:00+5nw1297100 1.4 1017160
11:00+5nnw1196100 0.6 1017215
14:00+10wsw227582 0.9 1016908
17:00+9nnw127595 0.9 1015525
20:00+7n11846 1.2 101510
21 april, wed
wed2123:00+4sw119292 0.0 101610
02:00+4wsw129596 0.0 101636
05:00+5w139789 0.0 1016117
08:00+6wnw248711 0.0 1016223
11:00+11nw464929 0.0 10151731
14:00+13nnw573822 0.0 10142207
17:00+12nnw57417 0.0 10141764
20:00+7n227365 0.0 101528
22 april, thu
thu2223:00+4nnw239558 0.0 101865
02:00+3nne3694100 0.2 1019434
05:00+2nnw379099 0.3 1019592
08:000nw49795 0.3 1021585
11:00+5nw58508 0.0 10211355
14:00+6nw574851 0.0 10221446
17:00+6nnw575584 0.0 10231473
20:00+4nw377276 0.1 1024487